When you browse on this site, cookies collect data to enhance your experience and personalize the content and advertising you see.
Visit our Privacy Policy to learn more. By continuing to use the site, you agree to this use of cookies and data.
  • In Czech Republic
  • List of Countries
  • For 7 days
  • Water Temperature
  • Weather Map
  • Weather Widgets
  • user-avatar
    Login

    Hourly Weather Eldoret

    Today, 14 November, Thursday

    Time Temperature Precipitation Wind Pressure Humidity
    00:00 +15°C° 0 mm 2 mps 595 mmHg 92%
    01:00 +14°C° 0 mm 2 mps 595 mmHg 93%
    02:00 +14°C° 0 mm 2 mps 595 mmHg 94%
    03:00 +14°C° 0 mm 2 mps 595 mmHg 94%
    04:00 +14°C° 0 mm 2 mps 595 mmHg 94%
    05:00 +14°C° 0 mm 2 mps 595 mmHg 94%
    06:00 +14°C° 0 mm 3 mps 596 mmHg 87%
    07:00 +17°C° 0 mm 3 mps 597 mmHg 79%
    08:00 +18°C° 0 mm 3 mps 598 mmHg 72%
    09:00 +20°C° 0 mm 4 mps 598 mmHg 66%
    10:00 +21°C° 0 mm 4 mps 598 mmHg 59%
    11:00 +23°C° 0 mm 4 mps 598 mmHg 53%
    12:00 +23°C° 0 mm 4 mps 598 mmHg 53%
    13:00 +23°C° 0 mm 4 mps 597 mmHg 53%
    14:00 +23°C° 0 mm 4 mps 597 mmHg 53%
    15:00 +22°C° 0.2 mm 3 mps 596 mmHg 59%
    16:00 +20°C° 0.2 mm 2 mps 596 mmHg 65%
    17:00 +20°C° 0.2 mm 1 mps 595 mmHg 71%
    18:00 +17°C° 0 mm 2 mps 595 mmHg 73%
    19:00 +16°C° 0 mm 2 mps 595 mmHg 75%
    20:00 +15°C° 0 mm 2 mps 595 mmHg 78%
    21:00 +15°C° 0 mm 2 mps 595 mmHg 81%
    22:00 +15°C° 0 mm 2 mps 596 mmHg 84%
    23:00 +15°C° 0 mm 2 mps 596 mmHg 87%

    Tomorrow, 15 November, Friday

    Time Temperature Precipitation Wind Pressure Humidity
    00:00 +15°C° 0 mm 2 mps 595 mmHg 87%
    01:00 +15°C° 0 mm 2 mps 595 mmHg 87%
    02:00 +15°C° 0 mm 2 mps 595 mmHg 87%
    03:00 +15°C° 0 mm 2 mps 595 mmHg 88%
    04:00 +14°C° 0 mm 2 mps 595 mmHg 88%
    05:00 +14°C° 0 mm 2 mps 595 mmHg 88%
    06:00 +16°C° 0 mm 3 mps 596 mmHg 82%
    07:00 +18°C° 0 mm 3 mps 597 mmHg 75%
    08:00 +19°C° 0 mm 3 mps 598 mmHg 68%
    09:00 +21°C° 0 mm 3 mps 598 mmHg 63%
    10:00 +22°C° 0 mm 3 mps 598 mmHg 58%
    11:00 +24°C° 0 mm 3 mps 598 mmHg 52%
    12:00 +25°C° 0 mm 3 mps 598 mmHg 52%
    13:00 +25°C° 0 mm 3 mps 597 mmHg 52%
    14:00 +25°C° 0 mm 3 mps 596 mmHg 51%
    15:00 +24°C° 0.3 mm 2 mps 596 mmHg 60%
    16:00 +21°C° 0.3 mm 2 mps 595 mmHg 68%
    17:00 +19°C° 0.3 mm 2 mps 594 mmHg 77%
    18:00 +18°C° 0.1 mm 2 mps 595 mmHg 79%
    19:00 +17°C° 0.1 mm 2 mps 595 mmHg 81%
    20:00 +16°C° 0.1 mm 2 mps 595 mmHg 83%
    21:00 +15°C° 0 mm 2 mps 595 mmHg 86%
    22:00 +15°C° 0 mm 2 mps 594 mmHg 90%
    23:00 +15°C° 0 mm 2 mps 594 mmHg 93%

    Day after tomorrow, 16 November, Saturday

    Time Temperature Precipitation Wind Pressure Humidity
    00:00 +14°C° 0 mm 2 mps 594 mmHg 93%
    01:00 +14°C° 0 mm 2 mps 594 mmHg 94%
    02:00 +13°C° 0 mm 3 mps 593 mmHg 94%
    03:00 +13°C° 0 mm 3 mps 593 mmHg 94%
    04:00 +13°C° 0 mm 3 mps 594 mmHg 94%
    05:00 +13°C° 0 mm 3 mps 594 mmHg 93%
    06:00 +16°C° 0 mm 3 mps 595 mmHg 85%
    07:00 +17°C° 0 mm 3 mps 596 mmHg 77%
    08:00 +19°C° 0 mm 4 mps 597 mmHg 69%
    09:00 +21°C° 0 mm 3 mps 597 mmHg 62%
    10:00 +22°C° 0 mm 3 mps 597 mmHg 56%
    11:00 +25°C° 0 mm 3 mps 598 mmHg 50%
    12:00 +25°C° 0.1 mm 3 mps 597 mmHg 51%
    13:00 +25°C° 0.1 mm 3 mps 596 mmHg 52%
    14:00 +25°C° 0.1 mm 2 mps 596 mmHg 53%
    15:00 +23°C° 0.1 mm 2 mps 595 mmHg 59%
    16:00 +21°C° 0.1 mm 2 mps 595 mmHg 65%
    17:00 +21°C° 0.1 mm 1 mps 594 mmHg 71%
    18:00 +19°C° 0 mm 1 mps 594 mmHg 73%
    19:00 +17°C° 0 mm 2 mps 594 mmHg 74%
    20:00 +16°C° 0 mm 2 mps 594 mmHg 76%
    21:00 +15°C° 0 mm 2 mps 594 mmHg 78%
    22:00 +15°C° 0 mm 2 mps 594 mmHg 81%
    23:00 +14°C° 0 mm 3 mps 594 mmHg 83%

    17 November, Sunday

    Time Temperature Precipitation Wind Pressure Humidity
    00:00 +13°C° 0 mm 3 mps 594 mmHg 84%
    01:00 +13°C° 0 mm 3 mps 593 mmHg 85%
    02:00 +13°C° 0 mm 3 mps 593 mmHg 85%
    03:00 +13°C° 0 mm 3 mps 594 mmHg 86%
    04:00 +13°C° 0 mm 3 mps 594 mmHg 86%
    05:00 +13°C° 0 mm 3 mps 594 mmHg 87%
    06:00 +16°C° 0 mm 3 mps 595 mmHg 79%
    07:00 +18°C° 0 mm 3 mps 596 mmHg 71%
    08:00 +20°C° 0 mm 3 mps 597 mmHg 63%
    09:00 +22°C° 0 mm 3 mps 597 mmHg 58%
    10:00 +24°C° 0 mm 3 mps 598 mmHg 52%
    11:00 +26°C° 0 mm 3 mps 598 mmHg 47%
    12:00 +26°C° 0.1 mm 2 mps 597 mmHg 50%
    13:00 +25°C° 0.1 mm 2 mps 596 mmHg 53%
    14:00 +24°C° 0.1 mm 2 mps 595 mmHg 57%
    15:00 +23°C° 0.5 mm 2 mps 595 mmHg 64%
    16:00 +20°C° 0.5 mm 2 mps 594 mmHg 71%
    17:00 +19°C° 0.5 mm 1 mps 594 mmHg 78%
    18:00 +18°C° 0.1 mm 2 mps 594 mmHg 79%
    19:00 +17°C° 0.1 mm 2 mps 594 mmHg 79%
    20:00 +16°C° 0.1 mm 2 mps 595 mmHg 80%
    21:00 +15°C° 0 mm 2 mps 594 mmHg 80%
    22:00 +14°C° 0 mm 3 mps 594 mmHg 81%
    23:00 +14°C° 0 mm 3 mps 594 mmHg 82%

    18 November, Monday

    Time Temperature Precipitation Wind Pressure Humidity
    00:00 +14°C° 0 mm 3 mps 594 mmHg 82%
    01:00 +14°C° 0 mm 4 mps 594 mmHg 83%
    02:00 +14°C° 0 mm 4 mps 594 mmHg 83%
    03:00 +13°C° 0 mm 4 mps 594 mmHg 83%
    04:00 +13°C° 0 mm 4 mps 594 mmHg 84%
    05:00 +13°C° 0 mm 4 mps 595 mmHg 84%
    06:00 +15°C° 0 mm 4 mps 596 mmHg 79%
    07:00 +18°C° 0 mm 4 mps 597 mmHg 73%
    08:00 +20°C° 0 mm 4 mps 598 mmHg 67%
    09:00 +21°C° 0.1 mm 4 mps 598 mmHg 62%
    10:00 +23°C° 0.1 mm 4 mps 598 mmHg 56%
    11:00 +25°C° 0.1 mm 3 mps 598 mmHg 50%
    12:00 +25°C° 0.2 mm 3 mps 597 mmHg 51%
    13:00 +25°C° 0.2 mm 3 mps 597 mmHg 52%
    14:00 +25°C° 0.2 mm 3 mps 596 mmHg 53%
    15:00 +23°C° 0.3 mm 2 mps 595 mmHg 61%
    16:00 +20°C° 0.3 mm 2 mps 595 mmHg 69%
    17:00 +19°C° 0.3 mm 1 mps 594 mmHg 77%
    18:00 +17°C° 0 mm 2 mps 594 mmHg 77%
    19:00 +17°C° 0 mm 2 mps 594 mmHg 77%
    20:00 +16°C° 0 mm 3 mps 595 mmHg 76%
    21:00 +14°C° 0 mm 3 mps 594 mmHg 79%
    22:00 +14°C° 0 mm 3 mps 594 mmHg 83%
    23:00 +13°C° 0 mm 3 mps 594 mmHg 86%

    19 November, Tuesday

    Time Temperature Precipitation Wind Pressure Humidity
    00:00 +13°C° 0 mm 3 mps 594 mmHg 86%
    01:00 +13°C° 0 mm 3 mps 594 mmHg 87%
    02:00 +13°C° 0 mm 3 mps 594 mmHg 87%
    03:00 +13°C° 0 mm 3 mps 594 mmHg 84%
    04:00 +13°C° 0 mm 3 mps 594 mmHg 82%
    05:00 +13°C° 0 mm 3 mps 595 mmHg 79%
    06:00 +16°C° 0 mm 3 mps 596 mmHg 72%
    07:00 +18°C° 0 mm 4 mps 597 mmHg 66%
    08:00 +20°C° 0 mm 4 mps 598 mmHg 59%
    09:00 +21°C° 0 mm 4 mps 598 mmHg 56%
    10:00 +22°C° 0 mm 3 mps 598 mmHg 53%
    11:00 +24°C° 0 mm 3 mps 598 mmHg 50%
    12:00 +24°C° 0.3 mm 3 mps 597 mmHg 55%
    13:00 +23°C° 0.3 mm 2 mps 597 mmHg 60%
    14:00 +23°C° 0.3 mm 2 mps 596 mmHg 64%
    15:00 +20°C° 0.7 mm 2 mps 595 mmHg 71%
    16:00 +19°C° 0.7 mm 2 mps 595 mmHg 77%
    17:00 +18°C° 0.7 mm 2 mps 594 mmHg 83%
    18:00 +17°C° 0.3 mm 2 mps 595 mmHg 85%
    19:00 +17°C° 0.3 mm 2 mps 595 mmHg 87%
    20:00 +16°C° 0.3 mm 2 mps 595 mmHg 89%
    21:00 +16°C° 0.1 mm 2 mps 595 mmHg 90%
    22:00 +16°C° 0.1 mm 2 mps 595 mmHg 90%
    23:00 +15°C° 0.1 mm 2 mps 595 mmHg 91%
    Show more